Time,TemperatureF,DewpointF,PressureIn,WindDirection,WindDirectionDegrees,WindSpeedMPH,WindSpeedGustMPH,Humidity,HourlyPrecipIn,Conditions,Clouds,dailyrainin,SoftwareType,DateUTC
2013-04-08 00:02:00,46.0,45.0,29.76,East,86,4.0,8.0,97,0.03,,,0.19,,2013-04-08 05:02:00,
2013-04-08 00:12:00,46.0,45.0,29.76,East,86,4.0,8.0,97,0.03,,,0.19,,2013-04-08 05:12:00,
2013-04-08 00:22:00,46.0,45.0,29.76,East,86,4.0,8.0,97,0.03,,,0.19,,2013-04-08 05:22:00,
2013-04-08 00:32:00,47.0,46.0,29.74,ESE,107,5.0,8.0,96,0.01,,,0.19,,2013-04-08 05:32:00,
2013-04-08 00:42:00,47.0,46.0,29.74,ESE,107,5.0,8.0,96,0.01,,,0.19,,2013-04-08 05:42:00,
2013-04-08 00:52:00,47.0,46.0,29.72,ESE,103,3.0,8.0,96,0.00,,,0.19,,2013-04-08 05:52:00,
2013-04-08 01:02:00,47.0,46.0,29.72,ESE,112,4.0,10.0,96,0.00,,,0.19,,2013-04-08 06:02:00,
2013-04-08 01:12:00,47.0,46.0,29.72,ESE,112,4.0,10.0,96,0.00,,,0.19,,2013-04-08 06:12:00,
2013-04-08 01:22:00,47.0,46.0,29.71,East,101,7.0,10.0,95,0.00,,,0.19,,2013-04-08 06:22:00,
2013-04-08 01:32:00,47.0,45.0,29.70,ESE,108,6.0,11.0,94,0.00,,,0.19,,2013-04-08 06:32:00,
2013-04-08 01:42:00,47.0,45.0,29.70,ESE,108,6.0,11.0,94,0.00,,,0.19,,2013-04-08 06:42:00,
2013-04-08 01:52:00,47.0,45.0,29.70,East,101,7.0,11.0,93,0.00,,,0.19,,2013-04-08 06:52:00,
2013-04-08 02:02:00,47.0,45.0,29.70,ESE,107,4.0,10.0,93,0.00,,,0.19,,2013-04-08 07:02:00,
2013-04-08 02:12:00,47.0,45.0,29.70,ESE,107,4.0,10.0,93,0.00,,,0.19,,2013-04-08 07:12:00,
2013-04-08 02:22:00,47.0,45.0,29.70,SE,134,7.0,12.0,92,0.00,,,0.19,,2013-04-08 07:22:00,
2013-04-08 02:32:00,47.0,45.0,29.70,SE,134,7.0,12.0,92,0.00,,,0.19,,2013-04-08 07:32:00,
2013-04-08 02:42:00,47.0,45.0,29.70,SE,134,7.0,12.0,92,0.00,,,0.19,,2013-04-08 07:42:00,
2013-04-08 02:52:00,48.0,45.0,29.70,SE,141,5.0,12.0,90,0.00,,,0.19,,2013-04-08 07:52:00,
2013-04-08 03:02:00,47.0,45.0,29.71,East,86,5.0,10.0,92,0.00,,,0.19,,2013-04-08 08:02:00,
2013-04-08 03:12:00,47.0,45.0,29.71,East,86,5.0,10.0,92,0.00,,,0.19,,2013-04-08 08:12:00,
2013-04-08 03:22:00,47.0,45.0,29.71,East,86,5.0,10.0,92,0.00,,,0.19,,2013-04-08 08:22:00,
2013-04-08 03:32:00,48.0,45.0,29.72,NNE,32,0.0,4.0,91,0.00,,,0.19,,2013-04-08 08:32:00,
2013-04-08 03:42:00,48.0,45.0,29.70,East,98,2.0,5.0,90,0.00,,,0.19,,2013-04-08 08:42:00,
2013-04-08 03:52:00,47.0,45.0,29.69,East,88,2.0,6.0,91,0.00,,,0.19,,2013-04-08 08:52:00,
2013-04-08 04:02:00,47.0,45.0,29.70,East,94,0.0,0.0,92,0.00,,,0.19,,2013-04-08 09:02:00,
2013-04-08 04:12:00,46.0,44.0,29.70,East,94,0.0,0.0,92,0.00,,,0.19,,2013-04-08 09:12:00,
2013-04-08 04:22:00,46.0,44.0,29.70,East,94,0.0,0.0,92,0.00,,,0.19,,2013-04-08 09:22:00,
2013-04-08 04:33:00,45.0,43.0,29.69,East,94,0.0,1.0,94,0.00,,,0.19,,2013-04-08 09:33:00,
2013-04-08 04:43:00,45.0,43.0,29.69,East,94,0.0,1.0,94,0.00,,,0.19,,2013-04-08 09:43:00,
2013-04-08 04:53:00,45.0,44.0,29.69,NNE,23,1.0,4.0,96,0.00,,,0.19,,2013-04-08 09:53:00,
2013-04-08 05:03:00,44.0,43.0,29.69,NNE,31,2.0,4.0,95,0.00,,,0.19,,2013-04-08 10:03:00,
2013-04-08 05:13:00,44.0,43.0,29.69,NNE,31,2.0,4.0,95,0.00,,,0.19,,2013-04-08 10:13:00,
2013-04-08 05:23:00,44.0,43.0,29.68,NNE,24,3.0,5.0,95,0.00,,,0.19,,2013-04-08 10:23:00,
2013-04-08 05:33:00,43.0,42.0,29.68,NE,40,4.0,6.0,96,0.00,,,0.19,,2013-04-08 10:33:00,
2013-04-08 05:42:00,43.0,42.0,29.68,NE,40,4.0,6.0,96,0.00,,,0.19,,2013-04-08 10:42:00,
2013-04-08 05:53:00,42.0,41.0,29.67,NE,54,0.0,6.0,95,0.00,,,0.19,,2013-04-08 10:53:00,
2013-04-08 06:02:00,41.0,40.0,29.67,NE,37,1.0,4.0,96,0.00,,,0.19,,2013-04-08 11:02:00,
2013-04-08 06:12:00,40.0,39.0,29.68,NE,37,0.0,2.0,96,0.00,,,0.19,,2013-04-08 11:12:00,
2013-04-08 06:22:00,40.0,39.0,29.68,NE,37,0.0,2.0,96,0.00,,,0.19,,2013-04-08 11:22:00,
2013-04-08 06:32:00,40.0,39.0,29.69,NE,37,0.0,2.0,96,0.00,,,0.19,,2013-04-08 11:32:00,
2013-04-08 06:42:00,40.0,39.0,29.69,NE,37,0.0,2.0,96,0.00,,,0.19,,2013-04-08 11:42:00,
2013-04-08 06:52:00,39.0,38.0,29.70,NE,37,0.0,4.0,96,0.00,,,0.19,,2013-04-08 11:52:00,
2013-04-08 07:03:00,39.0,38.0,29.70,NE,37,0.0,1.0,96,0.00,,,0.19,,2013-04-08 12:03:00,
2013-04-08 07:12:00,39.0,38.0,29.70,NE,37,0.0,1.0,96,0.00,,,0.19,,2013-04-08 12:12:00,
2013-04-08 07:23:00,39.0,38.0,29.71,NE,37,0.0,1.0,97,0.00,,,0.19,,2013-04-08 12:23:00,
2013-04-08 07:33:00,39.0,38.0,29.72,ESE,105,0.0,3.0,98,0.00,,,0.19,,2013-04-08 12:33:00,
2013-04-08 07:42:00,39.0,38.0,29.72,ESE,105,0.0,3.0,98,0.00,,,0.19,,2013-04-08 12:42:00,
2013-04-08 07:53:00,40.0,39.0,29.72,ESE,105,0.0,2.0,98,0.00,,,0.19,,2013-04-08 12:53:00,
2013-04-08 08:02:00,41.0,40.0,29.72,NE,55,1.0,4.0,98,0.00,,,0.19,,2013-04-08 13:02:00,
2013-04-08 08:12:00,41.0,40.0,29.72,NE,55,1.0,4.0,98,0.00,,,0.19,,2013-04-08 13:12:00,
2013-04-08 08:22:00,43.0,43.0,29.74,NNE,13,2.0,4.0,99,0.00,,,0.19,,2013-04-08 13:22:00,
2013-04-08 08:32:00,43.0,42.0,29.74,ENE,67,2.0,4.0,98,0.00,,,0.19,,2013-04-08 13:32:00,
2013-04-08 08:42:00,43.0,42.0,29.74,ENE,67,2.0,4.0,98,0.00,,,0.19,,2013-04-08 13:42:00,
2013-04-08 08:52:00,44.0,43.0,29.74,North,350,1.0,4.0,98,0.00,,,0.19,,2013-04-08 13:52:00,
2013-04-08 09:02:00,45.0,44.0,29.74,NNE,15,3.0,5.0,97,0.00,,,0.19,,2013-04-08 14:02:00,
2013-04-08 09:12:00,45.0,44.0,29.74,NNE,15,3.0,5.0,97,0.00,,,0.19,,2013-04-08 14:12:00,
2013-04-08 09:22:00,46.0,45.0,29.74,NE,37,2.0,6.0,97,0.00,,,0.19,,2013-04-08 14:22:00,
2013-04-08 09:32:00,47.0,46.0,29.74,ENE,64,3.0,6.0,96,0.00,,,0.19,,2013-04-08 14:32:00,
2013-04-08 09:42:00,49.0,48.0,29.75,NNE,12,2.0,5.0,95,0.00,,,0.19,,2013-04-08 14:42:00,
2013-04-08 09:52:00,49.0,48.0,29.75,NNE,12,2.0,5.0,95,0.00,,,0.19,,2013-04-08 14:52:00,
2013-04-08 10:02:00,50.0,48.0,29.75,NE,51,2.0,4.0,92,0.00,,,0.19,,2013-04-08 15:02:00,
2013-04-08 10:12:00,51.0,49.0,29.76,ENE,67,1.0,6.0,92,0.00,,,0.19,,2013-04-08 15:12:00,
2013-04-08 10:22:00,51.0,49.0,29.76,ENE,67,1.0,6.0,92,0.00,,,0.19,,2013-04-08 15:22:00,
2013-04-08 10:33:00,52.0,49.0,29.76,NE,45,2.0,4.0,89,0.00,,,0.19,,2013-04-08 15:33:00,
2013-04-08 10:43:00,52.0,49.0,29.76,NE,45,2.0,4.0,89,0.00,,,0.19,,2013-04-08 15:43:00,
2013-04-08 10:53:00,53.0,50.0,29.77,NW,326,2.0,5.0,88,0.00,,,0.19,,2013-04-08 15:53:00,
2013-04-08 11:03:00,54.0,50.0,29.77,NE,46,2.0,5.0,87,0.00,,,0.19,,2013-04-08 16:03:00,
2013-04-08 11:13:00,54.0,50.0,29.77,NE,46,2.0,5.0,87,0.00,,,0.19,,2013-04-08 16:13:00,
2013-04-08 11:23:00,55.0,51.0,29.78,NE,41,2.0,5.0,87,0.00,,,0.19,,2013-04-08 16:23:00,
2013-04-08 11:32:00,55.0,51.0,29.78,NE,41,2.0,5.0,87,0.00,,,0.19,,2013-04-08 16:32:00,
2013-04-08 11:42:00,55.0,50.0,29.79,NE,42,4.0,6.0,84,0.00,,,0.19,,2013-04-08 16:42:00,
2013-04-08 11:53:00,56.0,51.0,29.79,NE,52,4.0,6.0,83,0.00,,,0.19,,2013-04-08 16:53:00,
2013-04-08 12:03:00,55.0,50.0,29.80,North,11,4.0,7.0,84,0.00,,,0.19,,2013-04-08 17:03:00,
2013-04-08 12:12:00,55.0,50.0,29.80,NE,40,3.0,8.0,84,0.00,,,0.19,,2013-04-08 17:12:00,
2013-04-08 12:22:00,55.0,50.0,29.80,NE,40,3.0,8.0,84,0.00,,,0.19,,2013-04-08 17:22:00,
2013-04-08 12:32:00,55.0,50.0,29.79,NE,47,4.0,7.0,83,0.00,,,0.19,,2013-04-08 17:32:00,
2013-04-08 12:43:00,55.0,50.0,29.79,NE,47,4.0,7.0,83,0.00,,,0.19,,2013-04-08 17:43:00,
2013-04-08 12:52:00,55.0,50.0,29.80,NNE,20,2.0,8.0,84,0.00,,,0.19,,2013-04-08 17:52:00,
2013-04-08 13:02:00,55.0,51.0,29.80,NE,44,4.0,10.0,85,0.00,,,0.19,,2013-04-08 18:02:00,
2013-04-08 13:12:00,55.0,51.0,29.80,NE,44,4.0,10.0,85,0.00,,,0.19,,2013-04-08 18:12:00,
2013-04-08 13:23:00,55.0,51.0,29.79,NE,53,4.0,9.0,85,0.00,,,0.19,,2013-04-08 18:23:00,
2013-04-08 13:32:00,56.0,51.0,29.80,NNE,30,4.0,9.0,84,0.00,,,0.19,,2013-04-08 18:32:00,
2013-04-08 13:42:00,56.0,51.0,29.81,NNW,327,4.0,9.0,83,0.00,,,0.19,,2013-04-08 18:42:00,
2013-04-08 13:52:00,56.0,51.0,29.81,NNW,327,4.0,9.0,83,0.00,,,0.19,,2013-04-08 18:52:00,
2013-04-08 14:02:00,56.0,51.0,29.81,NNE,17,5.0,9.0,83,0.00,,,0.19,,2013-04-08 19:02:00,
2013-04-08 14:12:00,56.0,51.0,29.81,NNE,17,5.0,9.0,83,0.00,,,0.19,,2013-04-08 19:12:00,
2013-04-08 14:23:00,56.0,51.0,29.81,NE,55,5.0,9.0,82,0.00,,,0.19,,2013-04-08 19:23:00,
2013-04-08 14:33:00,55.0,50.0,29.81,NNW,344,4.0,11.0,84,0.00,,,0.19,,2013-04-08 19:33:00,
2013-04-08 14:42:00,56.0,51.0,29.82,NE,50,5.0,10.0,83,0.00,,,0.19,,2013-04-08 19:42:00,
2013-04-08 14:52:00,56.0,51.0,29.82,NE,50,5.0,10.0,83,0.00,,,0.19,,2013-04-08 19:52:00,
2013-04-08 15:02:00,56.0,50.0,29.82,NW,325,6.0,8.0,81,0.00,,,0.19,,2013-04-08 20:02:00,
2013-04-08 15:12:00,56.0,50.0,29.83,NNE,32,6.0,10.0,81,0.00,,,0.19,,2013-04-08 20:12:00,
2013-04-08 15:22:00,56.0,50.0,29.83,NNE,32,6.0,10.0,81,0.00,,,0.19,,2013-04-08 20:22:00,
2013-04-08 15:33:00,56.0,50.0,29.83,NNE,30,5.0,9.0,81,0.00,,,0.19,,2013-04-08 20:33:00,
2013-04-08 15:43:00,56.0,50.0,29.83,NNE,30,5.0,9.0,81,0.00,,,0.19,,2013-04-08 20:43:00,
2013-04-08 15:52:00,56.0,51.0,29.83,NNE,30,4.0,10.0,82,0.00,,,0.19,,2013-04-08 20:52:00,
2013-04-08 16:02:00,57.0,51.0,29.83,NE,42,4.0,10.0,81,0.00,,,0.19,,2013-04-08 21:02:00,
2013-04-08 16:12:00,56.0,50.0,29.83,NE,44,5.0,11.0,80,0.00,,,0.19,,2013-04-08 21:12:00,
2013-04-08 16:22:00,56.0,50.0,29.83,NE,44,5.0,11.0,80,0.00,,,0.19,,2013-04-08 21:22:00,
2013-04-08 16:32:00,56.0,51.0,29.83,NE,38,4.0,11.0,82,0.00,,,0.19,,2013-04-08 21:32:00,
2013-04-08 16:43:00,56.0,51.0,29.83,NE,38,4.0,11.0,82,0.00,,,0.19,,2013-04-08 21:43:00,
2013-04-08 16:53:00,57.0,51.0,29.83,ENE,59,3.0,10.0,81,0.00,,,0.19,,2013-04-08 21:53:00,
2013-04-08 17:03:00,56.0,51.0,29.84,North,5,4.0,10.0,82,0.00,,,0.19,,2013-04-08 22:03:00,
2013-04-08 17:13:00,56.0,51.0,29.84,North,5,4.0,10.0,82,0.00,,,0.19,,2013-04-08 22:13:00,
2013-04-08 17:23:00,56.0,51.0,29.85,North,5,2.0,10.0,83,0.00,,,0.19,,2013-04-08 22:23:00,
2013-04-08 17:32:00,56.0,51.0,29.85,North,5,2.0,10.0,83,0.00,,,0.19,,2013-04-08 22:32:00,
2013-04-08 17:43:00,56.0,51.0,29.85,North,5,3.0,9.0,82,0.00,,,0.19,,2013-04-08 22:43:00,
2013-04-08 17:53:00,56.0,50.0,29.86,North,355,5.0,11.0,81,0.00,,,0.19,,2013-04-08 22:53:00,
2013-04-08 18:02:00,56.0,50.0,29.86,East,81,4.0,9.0,81,0.00,,,0.19,,2013-04-08 23:02:00,
2013-04-08 18:12:00,56.0,50.0,29.86,East,81,4.0,9.0,81,0.00,,,0.19,,2013-04-08 23:12:00,
2013-04-08 18:22:00,56.0,50.0,29.86,East,81,4.0,9.0,81,0.00,,,0.19,,2013-04-08 23:22:00,
2013-04-08 18:32:00,56.0,50.0,29.88,NNE,27,5.0,8.0,81,0.00,,,0.19,,2013-04-08 23:32:00,
2013-04-08 18:42:00,56.0,50.0,29.88,NNE,27,5.0,8.0,81,0.00,,,0.19,,2013-04-08 23:42:00,
2013-04-08 18:52:00,55.0,51.0,29.89,North,5,5.0,11.0,85,0.00,,,0.19,,2013-04-08 23:52:00,
2013-04-08 19:02:00,54.0,50.0,29.90,NNW,348,7.0,14.0,85,0.00,,,0.19,,2013-04-09 00:02:00,
2013-04-08 19:12:00,54.0,50.0,29.90,NNW,348,7.0,14.0,85,0.00,,,0.19,,2013-04-09 00:12:00,
2013-04-08 19:22:00,52.0,48.0,29.91,NNE,22,8.0,16.0,87,0.00,,,0.19,,2013-04-09 00:22:00,
2013-04-08 19:32:00,50.0,47.0,29.91,NNE,23,6.0,15.0,89,0.00,,,0.19,,2013-04-09 00:32:00,
2013-04-08 19:42:00,50.0,47.0,29.91,NNE,23,6.0,15.0,89,0.00,,,0.19,,2013-04-09 00:42:00,
2013-04-08 19:52:00,49.0,46.0,29.92,WSW,250,6.0,15.0,90,0.00,,,0.19,,2013-04-09 00:52:00,
2013-04-08 20:02:00,48.0,45.0,29.93,NNE,27,6.0,13.0,91,0.00,,,0.19,,2013-04-09 01:02:00,
2013-04-08 20:12:00,48.0,45.0,29.93,NNE,27,6.0,13.0,91,0.00,,,0.19,,2013-04-09 01:12:00,
2013-04-08 20:22:00,48.0,45.0,29.93,North,350,7.0,15.0,91,0.00,,,0.19,,2013-04-09 01:22:00,
2013-04-08 20:33:00,47.0,45.0,29.94,NNE,32,7.0,12.0,91,0.00,,,0.19,,2013-04-09 01:33:00,
2013-04-08 20:42:00,47.0,45.0,29.95,North,355,8.0,13.0,91,0.00,,,0.19,,2013-04-09 01:42:00,
2013-04-08 20:52:00,47.0,45.0,29.95,North,355,8.0,13.0,91,0.00,,,0.19,,2013-04-09 01:52:00,
2013-04-08 21:02:00,46.0,44.0,29.95,NNE,31,7.0,14.0,91,0.00,,,0.17,,2013-04-09 02:02:00,
2013-04-08 21:12:00,46.0,44.0,29.95,NNE,31,7.0,14.0,91,0.00,,,0.17,,2013-04-09 02:12:00,
2013-04-08 21:22:00,46.0,44.0,29.96,NE,52,5.0,15.0,91,0.00,,,0.17,,2013-04-09 02:22:00,
2013-04-08 21:32:00,46.0,44.0,29.96,ENE,75,7.0,15.0,91,0.00,,,0.17,,2013-04-09 02:32:00,
2013-04-08 21:43:00,46.0,44.0,29.96,NNE,24,9.0,18.0,91,0.00,,,0.17,,2013-04-09 02:43:00,
2013-04-08 21:52:00,46.0,44.0,29.96,NNE,24,9.0,18.0,91,0.00,,,0.17,,2013-04-09 02:52:00,
2013-04-08 22:02:00,46.0,44.0,29.98,North,9,7.0,15.0,91,0.00,,,0.08,,2013-04-09 03:02:00,
2013-04-08 22:12:00,46.0,44.0,29.98,North,9,7.0,15.0,91,0.00,,,0.08,,2013-04-09 03:12:00,
2013-04-08 22:21:00,45.0,43.0,29.98,NE,38,6.0,19.0,92,0.00,,,0.08,,2013-04-09 03:21:00,
2013-04-08 22:33:00,45.0,43.0,29.99,NNE,29,7.0,17.0,92,0.00,,,0.08,,2013-04-09 03:33:00,
2013-04-08 22:43:00,45.0,43.0,29.99,NNE,29,7.0,17.0,92,0.00,,,0.08,,2013-04-09 03:43:00,
2013-04-08 22:53:00,45.0,43.0,30.00,ENE,65,5.0,10.0,93,0.00,,,0.08,,2013-04-09 03:53:00,
2013-04-08 23:03:00,45.0,43.0,30.01,NE,54,8.0,15.0,92,0.00,,,0.03,,2013-04-09 04:03:00,
2013-04-08 23:13:00,45.0,43.0,30.01,NE,54,8.0,15.0,92,0.00,,,0.03,,2013-04-09 04:13:00,
2013-04-08 23:23:00,44.0,42.0,30.01,NE,53,9.0,17.0,93,0.00,,,0.03,,2013-04-09 04:23:00,
2013-04-08 23:32:00,44.0,42.0,30.01,NE,53,9.0,17.0,93,0.00,,,0.03,,2013-04-09 04:32:00,
2013-04-08 23:42:00,44.0,42.0,30.01,NE,53,9.0,17.0,93,0.00,,,0.03,,2013-04-09 04:42:00,
2013-04-08 23:53:00,44.0,42.0,30.01,NE,53,9.0,17.0,93,0.00,,,0.03,,2013-04-09 04:53:00,